| time (UTC) | temp F | wind direction | speed MPH | gust MPH | rain 1hr in | rain 24hr in | rain mn in | humidity % | barometer mb |
| 20260505011325 | 59 | 16 | 1.0 | 2.0 | 0.00 | 0.00 | 0.00 | 85 | 1009.7 |
| 20260505010826 | 59 | 22 | 0.0 | 0.0 | 0.00 | 0.00 | 0.00 | 85 | 1009.9 |
| 20260505010325 | 59 | 22 | 0.0 | 0.0 | 0.00 | 0.00 | 0.00 | 85 | 1010.1 |
| 20260505005826 | 59 | 22 | 0.0 | 1.0 | 0.00 | 0.00 | 0.00 | 85 | 1010.1 |
| 20260505005326 | 59 | 22 | 0.0 | 2.0 | 0.00 | 0.00 | 0.00 | 85 | 1010.1 |
| 20260505004847 | 59 | 22 | 0.0 | 0.0 | 0.00 | 0.00 | 0.00 | 85 | 1010.2 |
| 20260505004326 | 60 | 22 | 0.0 | 0.0 | 0.00 | 0.00 | 0.00 | 85 | 1010.2 |
| 20260505003826 | 59 | 22 | 0.0 | 0.0 | 0.00 | 0.00 | 0.00 | 85 | 1010.2 |
| 20260505003327 | 59 | 22 | 0.0 | 0.0 | 0.00 | 0.00 | 0.00 | 84 | 1010.2 |
| 20260505002830 | 60 | 22 | 0.0 | 0.0 | 0.00 | 0.00 | 0.00 | 84 | 1010.2 |
| 20260505002331 | 60 | 22 | 0.0 | 0.0 | 0.00 | 0.00 | 0.00 | 84 | 1010.3 |
| 20260505001813 | 60 | 22 | 0.0 | 0.0 | 0.00 | 0.00 | 0.00 | 83 | 1010.3 |
| 20260505001313 | 60 | 22 | 0.0 | 0.0 | 0.00 | 0.00 | 0.00 | 83 | 1010.3 |
| 20260505000813 | 61 | 22 | 0.0 | 1.0 | 0.00 | 0.00 | 0.00 | 83 | 1010.4 |
| 20260505000314 | 61 | 22 | 0.0 | 1.0 | 0.00 | 0.00 | 0.00 | 83 | 1010.5 |
| 20260504235833 | 61 | 22 | 0.0 | 1.0 | 0.00 | 0.00 | 0.00 | 83 | 1010.4 |
| 20260504235332 | 61 | 22 | 0.0 | 1.0 | 0.00 | 0.00 | 0.00 | 83 | 1010.5 |
| 20260504234813 | 61 | 22 | 0.0 | 3.0 | 0.00 | 0.00 | 0.00 | 83 | 1010.4 |
| 20260504234315 | 61 | 22 | 0.0 | 3.0 | 0.00 | 0.00 | 0.00 | 83 | 1010.3 |
| 20260504233321 | 61 | 20 | 2.0 | 3.0 | 0.00 | 0.00 | 0.00 | 81 | 1010.4 |
| 20260504232821 | 61 | 65 | 2.0 | 3.0 | 0.00 | 0.00 | 0.00 | 79 | 1010.5 |
| 20260504232323 | 60 | 68 | 2.0 | 3.0 | 0.00 | 0.00 | 0.00 | 80 | 1010.5 |
| 20260504231824 | 60 | 358 | 2.0 | 3.0 | 0.00 | 0.00 | 0.00 | 82 | 1010.6 |
| 20260504231327 | 60 | 241 | 0.0 | 2.0 | 0.00 | 0.00 | 0.00 | 81 | 1010.5 |
| 20260504230850 | 60 | 222 | 0.0 | 2.0 | 0.00 | 0.00 | 0.00 | 81 | 1010.7 |
| 20260504230323 | 60 | 222 | 0.0 | 3.0 | 0.00 | 0.00 | 0.00 | 81 | 1010.7 |
| 20260504225825 | 60 | 223 | 2.0 | 3.0 | 0.00 | 0.00 | 0.00 | 82 | 1010.8 |
| 20260504224819 | 61 | 141 | 0.0 | 1.0 | 0.00 | 0.00 | 0.00 | 82 | 1010.8 |
| 20260504224344 | 61 | 141 | 1.0 | 2.0 | 0.00 | 0.00 | 0.00 | 81 | 1010.7 |
| 20260504223825 | 61 | 148 | 1.0 | 2.0 | 0.00 | 0.00 | 0.00 | 81 | 1010.6 |
| 20260504223327 | 61 | 308 | 0.0 | 1.0 | 0.00 | 0.00 | 0.00 | 81 | 1010.6 |
| 20260504222829 | 61 | 308 | 0.0 | 0.0 | 0.00 | 0.00 | 0.00 | 80 | 1010.7 |
| 20260504222333 | 61 | 308 | 0.0 | 0.0 | 0.00 | 0.00 | 0.00 | 79 | 1010.8 |
| 20260504221813 | 61 | 308 | 0.0 | 0.0 | 0.00 | 0.00 | 0.00 | 78 | 1010.8 |
| 20260504220823 | 61 | 307 | 0.0 | 0.0 | 0.00 | 0.00 | 0.00 | 78 | 1010.9 |
| 20260504220325 | 61 | 308 | 0.0 | 0.0 | 0.00 | 0.00 | 0.00 | 78 | 1010.8 |
| 20260504215826 | 61 | 308 | 0.0 | 0.0 | 0.00 | 0.00 | 0.00 | 78 | 1010.9 |
| 20260504215326 | 61 | 308 | 0.0 | 0.0 | 0.00 | 0.00 | 0.00 | 77 | 1011.0 |
| 20260504214826 | 61 | 308 | 0.0 | 0.0 | 0.00 | 0.00 | 0.00 | 77 | 1010.9 |
| 20260504214326 | 61 | 308 | 0.0 | 0.0 | 0.00 | 0.00 | 0.00 | 77 | 1010.9 |
| 20260504213828 | 61 | 308 | 0.0 | 0.0 | 0.00 | 0.00 | 0.00 | 76 | 1011.0 |
| 20260504213330 | 62 | 308 | 0.0 | 0.0 | 0.00 | 0.00 | 0.00 | 77 | 1010.9 |
| 20260504212813 | 61 | 308 | 0.0 | 0.0 | 0.00 | 0.00 | 0.00 | 77 | 1010.9 |
| 20260504212316 | 61 | 308 | 0.0 | 1.0 | 0.00 | 0.00 | 0.00 | 76 | 1011.0 |
| 20260504211818 | 61 | 308 | 0.0 | 1.0 | 0.00 | 0.00 | 0.00 | 75 | 1010.9 |
| 20260504211322 | 61 | 308 | 0.0 | 0.0 | 0.00 | 0.00 | 0.00 | 76 | 1011.0 |
| 20260504210824 | 61 | 308 | 0.0 | 0.0 | 0.00 | 0.00 | 0.00 | 75 | 1011.0 |
| 20260504210328 | 61 | 308 | 0.0 | 0.0 | 0.00 | 0.00 | 0.00 | 75 | 1011.0 |
| 20260504205828 | 61 | 307 | 0.0 | 0.0 | 0.00 | 0.00 | 0.00 | 74 | 1011.0 |
| 20260504205329 | 61 | 308 | 0.0 | 0.0 | 0.00 | 0.00 | 0.00 | 74 | 1011.0 |
| 20260504204829 | 62 | 308 | 0.0 | 0.0 | 0.00 | 0.00 | 0.00 | 74 | 1011.0 |
| 20260504204330 | 62 | 308 | 0.0 | 0.0 | 0.00 | 0.00 | 0.00 | 74 | 1011.0 |
| 20260504203812 | 62 | 308 | 0.0 | 0.0 | 0.00 | 0.00 | 0.00 | 73 | 1011.0 |
| 20260504203315 | 62 | 308 | 0.0 | 0.0 | 0.00 | 0.00 | 0.00 | 73 | 1011.0 |
| 20260504202816 | 63 | 308 | 0.0 | 0.0 | 0.00 | 0.00 | 0.00 | 73 | 1011.0 |
| 20260504202320 | 63 | 308 | 0.0 | 0.0 | 0.00 | 0.00 | 0.00 | 72 | 1010.9 |
| 20260504201821 | 63 | 307 | 0.0 | 1.0 | 0.00 | 0.00 | 0.00 | 71 | 1010.9 |
| 20260504201324 | 64 | 308 | 0.0 | 2.0 | 0.00 | 0.00 | 0.00 | 70 | 1010.9 |
| 20260504200825 | 64 | 308 | 0.0 | 2.0 | 0.00 | 0.00 | 0.00 | 68 | 1010.9 |
| 20260504200326 | 64 | 295 | 0.0 | 1.0 | 0.00 | 0.00 | 0.00 | 68 | 1010.8 |
| 20260504195828 | 64 | 295 | 0.0 | 1.0 | 0.00 | 0.00 | 0.00 | 68 | 1010.9 |
| 20260504195330 | 65 | 295 | 0.0 | 1.0 | 0.00 | 0.00 | 0.00 | 67 | 1010.9 |
| 20260504194814 | 65 | 295 | 0.0 | 1.0 | 0.00 | 0.00 | 0.00 | 67 | 1011.0 |
| 20260504194318 | 65 | 295 | 0.0 | 1.0 | 0.00 | 0.00 | 0.00 | 67 | 1011.0 |
| 20260504193828 | 65 | 295 | 0.0 | 1.0 | 0.00 | 0.00 | 0.00 | 67 | 1011.0 |
| 20260504193331 | 65 | 295 | 0.0 | 1.0 | 0.00 | 0.00 | 0.00 | 67 | 1011.1 |
| 20260504192815 | 65 | 295 | 0.0 | 0.0 | 0.00 | 0.00 | 0.00 | 67 | 1011.0 |
| 20260504192319 | 65 | 295 | 0.0 | 0.0 | 0.00 | 0.00 | 0.00 | 66 | 1011.0 |
| 20260504191823 | 65 | 295 | 0.0 | 0.0 | 0.00 | 0.00 | 0.00 | 66 | 1011.0 |
| 20260504191327 | 66 | 295 | 0.0 | 0.0 | 0.00 | 0.00 | 0.00 | 65 | 1011.0 |
| 20260504190831 | 66 | 295 | 0.0 | 0.0 | 0.00 | 0.00 | 0.00 | 64 | 1010.9 |
| 20260504190316 | 67 | 295 | 0.0 | 0.0 | 0.00 | 0.00 | 0.00 | 64 | 1010.9 |
| 20260504185820 | 67 | 295 | 0.0 | 0.0 | 0.00 | 0.00 | 0.00 | 63 | 1010.8 |
| 20260504185321 | 67 | 295 | 0.0 | 0.0 | 0.00 | 0.00 | 0.00 | 62 | 1010.8 |
| 20260504184821 | 68 | 295 | 0.0 | 0.0 | 0.00 | 0.00 | 0.00 | 61 | 1010.8 |
| 20260504184321 | 68 | 295 | 0.0 | 0.0 | 0.00 | 0.00 | 0.00 | 61 | 1010.8 |
| 20260504183822 | 69 | 295 | 0.0 | 1.0 | 0.00 | 0.00 | 0.00 | 60 | 1010.8 |
| 20260504183323 | 69 | 295 | 0.0 | 1.0 | 0.00 | 0.00 | 0.00 | 60 | 1010.7 |
| 20260504182813 | 69 | 295 | 0.0 | 1.0 | 0.00 | 0.00 | 0.00 | 59 | 1010.7 |
| 20260504182313 | 70 | 295 | 0.0 | 1.0 | 0.00 | 0.00 | 0.00 | 58 | 1010.7 |
| 20260504181815 | 70 | 295 | 0.0 | 2.0 | 0.00 | 0.00 | 0.00 | 58 | 1010.6 |
| 20260504181315 | 70 | 295 | 0.0 | 2.0 | 0.00 | 0.00 | 0.00 | 57 | 1010.7 |
| 20260504180819 | 71 | 296 | 1.0 | 3.0 | 0.00 | 0.00 | 0.00 | 57 | 1010.7 |
| 20260504180320 | 71 | 326 | 1.0 | 3.0 | 0.00 | 0.00 | 0.00 | 56 | 1010.6 |
| 20260504175823 | 71 | 324 | 1.0 | 4.0 | 0.00 | 0.00 | 0.00 | 55 | 1010.6 |
| 20260504175326 | 72 | 335 | 1.0 | 4.0 | 0.00 | 0.00 | 0.00 | 55 | 1010.6 |
| 20260504174849 | 72 | 308 | 1.0 | 4.0 | 0.00 | 0.00 | 0.00 | 54 | 1010.6 |
| 20260504174331 | 72 | 305 | 1.0 | 4.0 | 0.00 | 0.00 | 0.00 | 54 | 1010.5 |
| 20260504173848 | 73 | 278 | 0.0 | 4.0 | 0.00 | 0.00 | 0.00 | 53 | 1010.5 |
| 20260504173326 | 73 | 315 | 2.0 | 4.0 | 0.00 | 0.00 | 0.00 | 52 | 1010.5 |
| 20260504172812 | 74 | 295 | 1.0 | 4.0 | 0.00 | 0.00 | 0.00 | 51 | 1010.5 |
| 20260504171817 | 75 | 326 | 1.0 | 3.0 | 0.00 | 0.00 | 0.00 | 50 | 1010.4 |
| 20260504171314 | 75 | 334 | 1.0 | 5.0 | 0.00 | 0.00 | 0.00 | 49 | 1010.4 |
| 20260504170816 | 75 | 314 | 2.0 | 7.0 | 0.00 | 0.00 | 0.00 | 49 | 1010.5 |
| 20260504170319 | 75 | 280 | 3.0 | 7.0 | 0.00 | 0.00 | 0.00 | 50 | 1010.5 |
| 20260504160328 | 75 | 291 | 3.0 | 8.0 | 0.00 | 0.00 | 0.00 | 47 | 1010.5 |
| 20260504150828 | 75 | 248 | 6.0 | 15.0 | 0.00 | 0.00 | 0.00 | 43 | 1010.6 |
| 20260504150329 | 76 | 279 | 5.0 | 16.0 | 0.00 | 0.00 | 0.00 | 43 | 1010.7 |
| 20260504141313 | 77 | 205 | 4.0 | 15.0 | 0.00 | 0.00 | 0.00 | 42 | 1010.8 |
| 20260504140816 | 77 | 252 | 6.0 | 15.0 | 0.00 | 0.00 | 0.00 | 42 | 1010.9 |
| 20260504140319 | 77 | 263 | 5.0 | 13.0 | 0.00 | 0.00 | 0.00 | 45 | 1010.9 |
| 20260504130820 | 77 | 250 | 3.0 | 8.0 | 0.00 | 0.00 | 0.00 | 46 | 1011.2 |
| 20260504130323 | 77 | 250 | 1.0 | 9.0 | 0.00 | 0.00 | 0.00 | 47 | 1011.2 |
| 20260504110327 | 74 | 204 | 2.0 | 11.0 | 0.00 | 0.00 | 0.00 | 52 | 1012.1 |
| 20260504100322 | 70 | 274 | 4.0 | 9.0 | 0.00 | 0.00 | 0.00 | 54 | 1012.7 |
| 20260504081818 | 68 | 338 | 4.0 | 12.0 | 0.00 | 0.00 | 0.00 | 56 | 1013.0 |
| 20260504081319 | 68 | 275 | 6.0 | 12.0 | 0.00 | 0.00 | 0.00 | 56 | 1012.9 |
| 20260504080821 | 69 | 281 | 6.0 | 11.0 | 0.00 | 0.00 | 0.00 | 55 | 1012.8 |
| 20260504080324 | 69 | 224 | 5.0 | 11.0 | 0.00 | 0.00 | 0.00 | 55 | 1012.8 |
| 20260504070327 | 67 | 288 | 2.0 | 5.0 | 0.00 | 0.00 | 0.00 | 58 | 1012.5 |
| 20260504050324 | 62 | 250 | 1.0 | 3.0 | 0.00 | 0.00 | 0.00 | 64 | 1011.7 |
| 20260504045847 | 61 | 223 | 1.0 | 4.0 | 0.00 | 0.00 | 0.00 | 64 | 1011.7 |
| 20260504045329 | 61 | 231 | 1.0 | 4.0 | 0.00 | 0.00 | 0.00 | 65 | 1011.7 |
| 20260504044913 | 61 | 246 | 2.0 | 4.0 | 0.00 | 0.00 | 0.00 | 65 | 1011.7 |
| 20260504044312 | 60 | 254 | 2.0 | 3.0 | 0.00 | 0.00 | 0.00 | 67 | 1011.7 |
| 20260504043835 | 60 | 267 | 1.0 | 1.0 | 0.00 | 0.00 | 0.00 | 67 | 1011.5 |
| 20260504043405 | 60 | 268 | 0.0 | 1.0 | 0.00 | 0.00 | 0.00 | 67 | 1011.4 |
| 20260504042844 | 60 | 268 | 0.0 | 1.0 | 0.00 | 0.00 | 0.00 | 67 | 1011.4 |
| 20260504042326 | 60 | 268 | 0.0 | 1.0 | 0.00 | 0.00 | 0.00 | 67 | 1011.4 |
| 20260504041828 | 60 | 268 | 0.0 | 1.0 | 0.00 | 0.00 | 0.00 | 66 | 1011.4 |
| 20260504041329 | 60 | 268 | 0.0 | 1.0 | 0.00 | 0.00 | 0.00 | 66 | 1011.4 |
| 20260504040812 | 60 | 268 | 0.0 | 1.0 | 0.00 | 0.00 | 0.00 | 66 | 1011.3 |
| 20260504040313 | 60 | 268 | 1.0 | 1.0 | 0.00 | 0.00 | 0.00 | 65 | 1011.3 |
| 20260504035814 | 60 | 268 | 0.0 | 1.0 | 0.00 | 0.00 | 0.00 | 65 | 1011.4 |
| 20260504035334 | 60 | 268 | 0.0 | 1.0 | 0.00 | 0.00 | 0.00 | 65 | 1011.4 |
| 20260504034814 | 60 | 267 | 0.0 | 1.0 | 0.00 | 0.00 | 0.00 | 65 | 1011.4 |
| 20260504034318 | 60 | 267 | 1.0 | 1.0 | 0.00 | 0.00 | 0.00 | 64 | 1011.4 |
| 20260504033821 | 61 | 268 | 0.0 | 0.0 | 0.00 | 0.00 | 0.00 | 64 | 1011.3 |
| 20260504033325 | 61 | 267 | 0.0 | 0.0 | 0.00 | 0.00 | 0.00 | 63 | 1011.3 |
| 20260504032823 | 60 | 268 | 0.0 | 1.0 | 0.00 | 0.00 | 0.00 | 64 | 1011.4 |
| 20260504032348 | 61 | 267 | 0.0 | 1.0 | 0.00 | 0.00 | 0.00 | 64 | 1011.5 |
| 20260504031813 | 61 | 267 | 1.0 | 1.0 | 0.00 | 0.00 | 0.00 | 63 | 1011.6 |
| 20260504031316 | 61 | 268 | 0.0 | 1.0 | 0.00 | 0.00 | 0.00 | 62 | 1011.6 |
| 20260504030838 | 62 | 267 | 0.0 | 2.0 | 0.00 | 0.00 | 0.00 | 61 | 1011.6 |
| 20260504030316 | 62 | 267 | 0.0 | 2.0 | 0.00 | 0.00 | 0.00 | 60 | 1011.6 |
| 20260504025324 | 62 | 268 | 0.0 | 2.0 | 0.00 | 0.00 | 0.00 | 60 | 1011.6 |
| 20260504024825 | 62 | 267 | 1.0 | 2.0 | 0.00 | 0.00 | 0.00 | 60 | 1011.7 |
| 20260504024325 | 62 | 279 | 1.0 | 2.0 | 0.00 | 0.00 | 0.00 | 60 | 1011.6 |
| 20260504023825 | 62 | 265 | 1.0 | 2.0 | 0.00 | 0.00 | 0.00 | 60 | 1011.7 |
| 20260504023326 | 62 | 265 | 1.0 | 3.0 | 0.00 | 0.00 | 0.00 | 61 | 1011.7 |
| 20260504022827 | 62 | 260 | 2.0 | 3.0 | 0.00 | 0.00 | 0.00 | 61 | 1011.6 |
| 20260504022330 | 62 | 267 | 2.0 | 4.0 | 0.00 | 0.00 | 0.00 | 61 | 1011.5 |
| 20260504021831 | 62 | 269 | 3.0 | 4.0 | 0.00 | 0.00 | 0.00 | 61 | 1011.5 |
| 20260504021312 | 61 | 267 | 3.0 | 4.0 | 0.00 | 0.00 | 0.00 | 61 | 1011.4 |
| 20260504020814 | 61 | 274 | 2.0 | 4.0 | 0.00 | 0.00 | 0.00 | 62 | 1011.4 |
| 20260504020316 | 61 | 264 | 2.0 | 3.0 | 0.00 | 0.00 | 0.00 | 63 | 1011.3 |
| 20260504015820 | 60 | 269 | 1.0 | 3.0 | 0.00 | 0.00 | 0.00 | 63 | 1011.2 |
| 20260504015321 | 60 | 264 | 2.0 | 2.0 | 0.00 | 0.00 | 0.00 | 64 | 1011.1 |
| 20260504014841 | 60 | 260 | 1.0 | 2.0 | 0.00 | 0.00 | 0.00 | 65 | 1011.1 |
| 20260504014322 | 60 | 264 | 0.0 | 1.0 | 0.00 | 0.00 | 0.00 | 64 | 1011.0 |
| 20260504013825 | 60 | 265 | 0.0 | 1.0 | 0.00 | 0.00 | 0.00 | 64 | 1011.0 |
| 20260504013326 | 60 | 266 | 0.0 | 2.0 | 0.00 | 0.00 | 0.00 | 63 | 1011.0 |
| 20260504012916 | 60 | 266 | 1.0 | 2.0 | 0.00 | 0.00 | 0.00 | 63 | 1010.9 |
| 20260504012312 | 60 | 265 | 1.0 | 2.0 | 0.00 | 0.00 | 0.00 | 63 | 1010.9 |
| 20260504011813 | 60 | 266 | 1.0 | 1.0 | 0.00 | 0.00 | 0.00 | 63 | 1010.8 |